Other Public Products
Issued by NWS Grand Forks, ND

Home | Current Version | Previous Version | Graphics & Text | Print | Product List | Glossary On
Versions: 1 2 3 4 5 6 7 8 9 10 11 12 13 14 15 16 17 18 19 20 21 22 23 24 25 26 27 28 29 30 31 32 33 34 35 36 37 38 39 40 41 42 43 44 45 46 47 48 49 50
000
FPUS83 KFGF 241610
OPUFGF
PRAIRIE TO PINES WEATHER ROUNDUP
NATIONAL WEATHER SERVICE EASTERN NORTH DAKOTA/GRAND FORKS ND
1000 AM CST FRI NOV 24 2017

 **SATELLITE DATA USED TO AUGMENT SKY COVER AT AUTOMATED STATIONS**
 *****  WEATHER ACROSS EASTERN NORTH DAKOTA  *****

CITY           SKY/WX    TMP DP  RH WIND       PRES   REMARKS
GRAND FORKS    PTSUNNY   39  37  92 W15       29.38R
GRND FORKS AFB FAIR      41  37  86 NW16G23   29.38S
GRND FORKS NWS   N/A     37 N/A N/A NW5         N/A
BUXTON         NOT AVBL
DEVILS LAKE    FAIR      39  36  89 NW18      29.44R
FARGO          CLOUDY    47  42  83 NW14      29.37R
WAHPETON ARPT  NOT AVBL
$$

 *****  WEATHER ACROSS CENTRAL AND WESTERN NORTH DAKOTA  *****

CITY           SKY/WX    TMP DP  RH WIND       PRES   REMARKS
JAMESTOWN      LGT RAIN  42  40  92 NW17      29.45R
BISMARCK       PTSUNNY   47  40  76 NW16      29.59R
MINOT          FAIR      44  36  73 W17       29.52R
MINOT AFB      FAIR      42  36  79 NW18G24   29.51R
GARRISON         N/A     41  37  86 NW18      29.55R
WILLISTON      FAIR      42  37  82 W14       29.65R
DICKINSON      NOT AVBL
HETTINGER      FAIR      44  37  76 NW18G28   29.69R
$$

 *****  OTHER OBSERVATIONS NORTHEAST NORTH DAKOTA  *****

CITY           SKY/WX    TMP DP  RH WIND       PRES   REMARKS
WALHALLA       FAIR      41  41 100 W10       29.38R
LANGDON        FAIR      37  37 100 W16       29.40R
CAVALIER       FAIR      41  34  75 W20       29.36R
GRAFTON        FAIR      39  36  87 W13       29.38S
CANDO          FAIR      36  36 100 W15       29.46R
FORT TOTTEN      N/A     39  37  91 NW7       29.95S
ROLLA          FAIR      41  34  75 NW15G25   29.44R
RUGBY          FAIR      37  37 100 NW15      29.48R
 ***** THE ABOVE OBSERVATIONS ARE NON NWS ARE NOT QUALITY
        CONTROLLED AND MAY MIS-REPORT RAIN FOR SNOW...
$$

 *****  OTHER OBSERVATIONS SOUTHEAST NORTH DAKOTA *****

CITY           SKY/WX    TMP DP  RH WIND       PRES   REMARKS
COOPERSTOWN    PTSUNNY   41  41 100 NW15G22   29.43S
VALLEY CITY    PTSUNNY   41  41 100 NW17G25   29.44R FOG
OAKES            N/A     50  46  87 W18       29.42R
GWINNER          N/A     50  45  81 W15       29.40R
SHEYENNE NWR     N/A     48  46  93 N6        29.95
BUFFALO        NOT AVBL
WYNDMERE       NOT AVBL
 ***** THE ABOVE OBSERVATIONS ARE NON NWS ARE NOT QUALITY
       CONTROLLED AND MAY MIS-REPORT RAIN FOR SNOW...
$$

  *****  WEATHER ACROSS NORTHERN MINNESOTA  *****

CITY           SKY/WX    TMP DP  RH WIND       PRES   REMARKS
FLAG ISLAND    CLOUDY    36  30  80 W8        29.27R
WARROAD        FAIR      37  34  87 W9        29.31R
ROSEAU         FAIR      37  34  87 W7        29.32R
HALLOCK        FAIR      36  34  93 SW6       29.35R
THF RVR FALLS  LGT RAIN  37  36  96 W9        29.37R
HALSTAD        NOT AVBL
FOSSTON        CLOUDY    37  37 100 W7        29.34R
BAUDETTE       CLOUDY    37  33  85 NW12      29.27R
WASKISH        NOT AVBL
CROOKSTON      MIX PCPN  37  36  93 NW10      29.38R
$$
  *****  WEATHER ACROSS CENTRAL AND WEST MINNESOTA  *****

CITY           SKY/WX    TMP DP  RH WIND       PRES   REMARKS
BEMIDJI        CLOUDY    41  40  96 NW9       29.29R
PARK RAPIDS    LGT RAIN  43  40  89 S6        29.28F
WADENA         LGT RAIN  45  39  81 W5        29.33S
DETROIT LAKES  FAIR      43  41  93 W9        29.36R
MOORHEAD       CLOUDY    43  39  87 CALM      29.38R
FERGUS FALLS   LGT RAIN  43  41  93 CALM      29.37F
ELBOW LAKE     NOT AVBL
MORRIS MN      FAIR      52  39  62 NW14      29.38R
STAPLES        PTSUNNY   46  37  71 W12       29.34R
WHEATON        LGT RAIN  50  37  62 W6        29.44R
$$
  *****  WEATHER ELSEWHERE ACROSS MINNESOTA  *****

CITY           SKY/WX    TMP DP  RH WIND       PRES   REMARKS
DULUTH         PTSUNNY   37  36  96 W13       29.26R
INTRNTL FALLS  CLOUDY    40  34  79 W8        29.23R
ELY            LGT RAIN  39  36  87 W3        29.23S
CLOQUET        PTSUNNY   39  36  87 SW7       29.28S
BRAINERD       FAIR      42  38  85 SW6       29.32R
HIBBING        LGT RAIN  38  37  97 VRB3      29.25S
ALEXANDRIA     FAIR      51  39  63 NW16      29.38R
SAINT CLOUD    FAIR      51  39  63 NW6       29.31F
MINNEAPOLIS    FAIR      53  40  61 W8        29.34S
$$

  *****  WEATHER ACROSS SOUTH DAKOTA  *****

CITY           SKY/WX    TMP DP  RH WIND       PRES   REMARKS
SIOUX FALLS    FAIR      53  42  66 W3        29.44S
BROOKINGS      FAIR      46  38  73 NW9       29.47R
WATERTOWN      FAIR      51  40  65 NW20      29.48R
HURON          PTSUNNY   53  39  59 NW15      29.53R
SISSETON         N/A     53  45  74 W13G22    29.39R
ABERDEEN       CLOUDY    49  43  80 SW8       29.46S
MITCHELL       FAIR      54  40  59 NW17      29.52R
PIERRE         CLOUDY    53  40  61 W7        29.58S
MOBRIDGE       PTSUNNY   53  42  66 NW24G36   29.53R
RAPID CITY     CLOUDY    50  36  58 NW23G36   29.73R
$$

  *****  SOME WEATHER IN NEARBY STATES *****

CITY           SKY/WX    TMP DP  RH WIND       PRES   REMARKS
GLASGOW MT     FAIR      37  35  92 SW10      29.76R
GREAT FALLS MT FAIR      39  23  52 SW15      29.86R
CHEYENNE WY    FAIR      57  28  33 W24G41    29.86R
SCOTTSBLUFF NE FAIR      62  32  32 W22G29    29.75R
OMAHA NE       FAIR      59  40  49 S9        29.50F
DES MOINES IA  FAIR      60  38  43 SW16      29.49F
DAVENPORT IA   FAIR      54  34  46 S21G29    29.62F
CHICAGO IL     FAIR      50  32  50 S13G24    29.68F
EAU CLAIRE WI  NOT AVBL
LA CROSSE WI   FAIR      53  36  52 S10       29.43F
$$

  *****  SOME NATIONAL WEATHER *****

CITY           SKY/WX    TMP DP  RH WIND       PRES   REMARKS
LA GUARDIA NY  FAIR      46  23  40 N3        30.04F
RALEIGH NC     FAIR      49  26  41 NE6       30.06F
ATLANTA GA     FAIR      54  42  64 VRB3      30.04F
NEW ORLEANS LA FAIR      58  33  39 VRB6      30.06S
OKLAHOMA CITY  FAIR      60  36  40 S15       29.83F
ALBUQUERQUE NM FAIR      45  29  53 NW3       30.14R
SALT LAKE CITY FAIR      45  42  89 CALM      30.04R
LOS ANGELES CA FAIR      68  48  48 E7        29.93R
BOISE ID       FAIR      45  43  93 NW3       30.08R
SEATTLE WA     MOCLDY    47  40  76 S13       30.07R
$$

*** WEATHER ACROSS MANITOBA...SASKATCHEWAN AND ONTARIO ***
                ***ONTARIO***

CITY           SKY/WX    TMP DP  RH WIND       PRES   REMARKS
GERALDTON      CLOUDY    36  34  93 SW12      29.09S
THUNDER BAY    PTSUNNY   36  34  93 SE5       29.16F
SIOUX LOOKOUT  CLOUDY    32  32 100 W8        29.17R WCI  25
TORONTO        MOSUNNY   46  34  61 SW18G33   29.80F
BIG TROUT LK   LGT SNOW  10   9  92 S6        29.12S WCI   1
PICKLE LAKE    LGT SNOW  23  21  93 W12G20    29.10F FOG     WCI  12
DRYDEN         CLOUDY    34  32  93 W12G17    29.18R
KENORA         CLOUDY    32  30  93 NW9G18    29.25R WCI  24
$$
                *** MANITOBA***

CITY           SKY/WX    TMP DP  RH WIND       PRES   REMARKS
BRANDON        MOSUNNY   36  32  87 W17       29.42R
DAUPHIN        SUNNY     36  30  80 W17G25    29.37R
ISLAND LAKE    FLURRIES  12   9  85 NW6       29.19R WCI   3
PILOT MOUND      N/A     37  32  81 W12G18      N/A
THE PAS        FLURRIES  14   5  67 NW17G23   29.41R WCI  -3
THOMPSON       FLURRIES   1  -4  78 N8        29.36R WCI -12
WINNIPEG       MOSUNNY   36  32  87 W12       29.34R
LYNN LAKE      FLURRIES  -2  -6  84 NW7       29.44R WCI -16
CHURCHILL      FLURRIES   5   1  85 NW9       29.42R WCI  -9
$$
                ***SASKATCHEWAN***

CITY           SKY/WX    TMP DP  RH WIND       PRES   REMARKS
ESTEVAN        MOSUNNY   39  34  81 W21G26    29.56R
KINDERSLEY     MOCLDY    30  25  80 W10       29.63R WCI  21
LLOYDMINSTER   MOCLDY    34  28  80 W10       29.55R
PRINCE ALBERT  MOCLDY    21  16  79 N8        29.54R WCI  12
REGINA         MOSUNNY   36  32  87 W23G29    29.56R
YORKTON        MOSUNNY   36  30  80 W18G25    29.43R
N. BATTLEFORD  MOCLDY    32  27  80 W14       29.58R W


USA.gov is the U.S. government's official web portal to all federal, state and local government web resources and services.